Terminal Aerodrome Forecast
Issued by NWS Sioux Falls, SD

Home | Current Version | Previous Version | Text Only | Print | Product List | Glossary On
Versions: 1 2 3 4 5 6 7 8 9 10 11 12 13
000
FTUS43 KFSD 051120
TAFFSD
TAF
KFSD 051120Z 0512/0612 11004KT P6SM BKN250
     FM051500 14009KT P6SM SCT025 BKN250
     FM060100 16007KT P6SM SKC=

USA.gov is the U.S. government's official web portal to all federal, state and local government web resources and services.